FENGYUN 1C DEB

Satellite information

Favourite Embed

Satellite Type and Status

DEBRISIN ORBIT

Key statistics

Satellite FENGYUN 1C DEB at a glance.

Uptime

9495

Days in orbit

Revolutions

≈ 14.1

Per day

Orbit

SSO

Sun Synchronous Orbit

Inclination

99.1

Latest

Satellite identification and parameters

Extended collection of information and parameters for FENGYUN 1C DEB.

Object identification

Identified? True

Debris? True

Object name: FENGYUN 1C DEB

International designator: 1999-025BQC

Object number (NORAD): 31324

Object ID (CCSDS): 31324

Country: PEOPLES REPUBLIC OF CHINA (PRC)

Current information (Y/N): Y

RCS size: SMALL

Orbital parameters

Period: 101.8 minutes

Inclination: 99.1213 deg

SMA: 7222.03 km

Apoapsis: 879.559 km

Periapsis: 808.23 km

RAAN: 42.835 deg

Eccentricy: 0.0049383

Argument of periapsis: 204.9359 deg

Mean anomaly: 154.9426 deg

Mean motion: 14.14535526 rev/day

Mean motion (dot): 0.00000298 rev/day2

B* drag term: 0.00017762 1/REarth

Two-line elements (TLE)

Creation date: May 7, 2025, 3:14 a.m.

Reference frame: TEME

Reference center: EARTH

Epoch: May 6, 2025, 12:06 a.m. UTC

TLE line 0: 0 FENGYUN 1C DEB

TLE line 1: 1 31324U 99025BQC 25126.00449492 .00000298 00000-0 17762-3 0 9991

TLE line 2: 2 31324 99.1213 42.8350 0049383 204.9359 154.9426 14.14535526933654

Live tracking on map

Real-time ground track for satellite FENGYUN 1C DEB.

In-orbit conjunctions

A list of the most updated potential collisions computed for object FENGYUN 1C DEB.

Target Orbit TCA Probability of collision Miss distance Type
CZ-6A DEB LEO 2024-11-17 00:51:03 0.0002849479 144.0 (m) DEBRIS
CZ-6A DEB LEO 2024-10-24 13:58:24 0.0001090892 379.0 (m) DEBRIS
H-2A R/B SSO 2024-10-19 12:34:45 0.0001844642 656.0 (m) ROCKET BODY

Associated space launch

Chinese polar orbiting meteorological satellite

FENGYUN 1C DEB was lifted into orbit during the mission ‘Long March 4B | Feng Yun 1C’, on board a Long March 4B space rocket.

The launch took place on May 10, 1999, 1:33 a.m. from Launch Complex 7.

For more information about the launch, click the button.

Launch to space Long March 4B | Feng Yun 1C
Long March 4B | Feng Yun 1C

Agency: N/A

Status: Launch Successful

Launch date: May 10, 1999, 1:33 a.m. UTC

Rocket: Long March 4B

Launch pad: Launch Complex 7

Location: Taiyuan Satellite Launch Center, People's Republic of China

...

Latest news about this satellite

There are no fresh news available about this satellite. Check back as we update our databases every day.


Newsletter sign-up

Weekly statistics, charts and insights to help you stay on top of the space industry.